Wind_Speed
17 17 17 17 18 18 18 17 17 17 17 17 17 17 17 17 18 18 18 18 18 19 19 19 18 18 18 19 20 21 22 23 22 23 27 24 17 16 14 16 16 12 14 18 19 17 15 18 20 18 18 16 15 17 16 18 19 12 5 4 5 3 4 4 6 5 4 3 3 9 23 18 13 19 24 24 23 28 21 14 18 12 19 30 29 33 34 33
18 18 18 19 19 19 19 19 19 18 18 18 17 18 17 17 18 18 18 18 18 18 18 19 19 18 18 18 19 20 22 22 24 26 22 13 12 17 17 19 19 13 14 22 26 22 19 21 21 20 20 17 15 16 13 12 15 10 3 3 6 5 6 6 8 8 8 7 4 11 24 22 20 25 26 20 17 22 17 14 21 21 23 27 31 34 33 36
18 19 19 19 19 20 19 20 20 20 20 19 19 19 18 18 18 18 18 18 18 18 19 19 19 18 17 18 18 19 20 21 25 21 10 7 9 16 20 24 23 16 12 18 23 20 18 20 19 21 21 16 17 18 14 10 10 10 6 3 8 8 6 8 13 16 16 13 7 10 21 24 26 30 25 19 18 18 16 18 22 24 28 31 32 33 34 37
20 20 20 20 20 20 19 20 20 20 20 20 20 20 19 19 18 19 18 18 18 18 18 18 19 18 16 17 17 17 18 19 18 9 6 8 7 8 19 26 24 18 12 12 14 13 13 15 16 21 19 13 18 17 14 15 9 8 9 6 10 9 5 11 16 22 20 16 13 15 18 20 27 30 25 24 17 10 17 28 31 32 36 35 34 36 37 36
20 21 21 21 20 20 20 20 20 20 21 21 21 20 20 20 19 19 19 19 18 18 18 18 19 17 16 17 16 15 13 10 5 1 4 8 7 3 16 24 22 17 14 12 13 13 13 15 16 19 15 10 13 12 14 22 15 5 9 13 16 13 6 14 21 23 21 17 16 18 16 20 25 24 29 30 15 13 25 35 38 41 42 40 40 39 36 36
20 20 20 21 21 21 21 21 21 21 21 21 21 21 21 20 20 20 19 19 19 18 18 18 18 17 17 16 15 14 8 4 6 3 0 5 7 4 9 19 21 16 15 14 16 16 17 19 18 17 14 9 10 10 15 20 17 8 10 16 22 23 12 15 22 21 23 18 15 18 19 24 21 15 31 33 18 24 36 38 39 42 44 43 42 40 38 37
21 21 21 21 21 22 22 23 23 22 22 22 22 22 22 21 21 20 20 19 19 19 18 18 18 16 16 15 15 12 9 16 15 7 6 2 3 2 6 12 16 17 16 15 18 20 21 22 20 18 12 8 10 14 19 18 17 12 9 12 20 28 21 18 20 23 28 21 18 23 22 22 17 13 27 26 19 31 37 38 41 41 44 43 41 41 40 39
22 22 22 22 21 22 22 23 23 23 23 23 23 22 22 22 21 21 20 20 20 19 18 18 17 17 16 15 13 11 15 20 11 5 12 8 6 6 5 9 11 13 16 17 21 21 22 22 22 19 10 10 13 13 17 14 13 12 10 13 17 23 26 23 20 27 30 21 21 25 19 20 21 19 21 22 26 35 38 38 41 42 43 42 41 41 40 39
22 23 22 23 22 22 22 23 23 23 24 24 23 23 23 22 21 21 20 21 20 18 19 18 17 17 15 15 11 9 14 10 2 6 12 13 13 13 11 10 10 11 13 15 19 21 22 22 25 21 11 13 15 13 14 8 6 8 9 13 12 15 23 22 19 26 27 21 23 20 11 15 21 18 14 27 38 38 39 40 41 43 42 41 39 40 40 40
23 23 23 23 23 23 23 23 24 24 24 24 24 24 23 22 21 21 21 21 20 19 19 18 17 16 16 15 6 5 12 6 3 6 9 13 16 17 18 16 14 13 13 14 16 20 24 25 26 22 15 14 13 14 15 8 8 12 13 15 14 17 19 18 22 25 22 21 26 18 8 12 22 17 7 25 43 40 41 40 41 43 41 40 39 38 40 40
24 23 23 23 23 24 24 24 25 24 24 24 24 24 23 22 21 21 21 21 20 19 18 19 18 16 17 15 9 9 11 5 3 6 6 10 15 17 17 18 19 17 16 16 16 18 23 27 26 17 10 8 10 13 15 14 15 17 15 14 16 18 16 13 22 24 17 16 26 21 10 13 20 17 14 28 42 43 43 40 40 42 39 39 38 37 38 38
25 25 24 24 24 24 24 25 25 25 26 25 24 23 22 21 21 21 22 22 21 18 17 18 17 17 17 18 23 18 8 7 7 7 7 9 11 11 10 14 18 18 18 17 17 17 19 26 26 17 11 7 7 7 12 18 17 16 12 9 12 11 11 9 19 26 17 11 24 22 9 8 11 16 28 37 41 43 43 40 39 39 38 38 37 37 37 37
26 26 25 25 25 24 25 25 25 26 26 26 25 23 21 20 20 21 22 22 21 18 17 17 17 18 15 19 32 26 16 18 19 17 15 13 13 13 13 15 12 14 17 16 15 16 16 23 25 22 21 13 8 9 14 20 16 13 8 4 8 8 7 7 16 25 16 13 30 23 5 5 9 20 36 41 42 41 39 38 38 37 37 37 36 37 37 37
27 27 27 26 26 25 25 25 25 25 26 27 26 23 21 18 18 21 22 22 20 18 17 16 16 16 14 25 35 27 21 21 21 22 19 17 18 17 19 20 13 11 14 13 10 12 12 17 21 21 22 18 15 17 15 13 9 6 5 4 4 3 7 7 13 21 11 16 32 21 3 6 11 23 36 41 44 42 35 36 37 36 37 36 36 37 38 38
27 27 28 27 27 26 25 25 25 25 26 26 25 23 20 18 19 21 20 20 19 18 16 15 15 12 13 28 35 24 18 19 22 22 20 21 22 21 21 22 19 13 13 14 11 10 10 13 18 17 18 19 17 13 7 5 4 1 2 5 3 2 7 8 11 23 13 13 22 14 3 6 12 23 35 40 42 40 35 34 36 36 37 36 35 37 39 38
28 28 28 27 27 26 26 25 25 25 25 25 24 21 18 18 18 16 16 17 16 15 13 11 11 8 8 18 23 17 15 18 20 18 19 25 24 25 23 21 21 16 13 16 13 13 14 14 18 18 16 15 9 5 4 4 4 1 2 4 5 3 6 6 5 18 16 12 11 9 5 4 10 23 35 40 40 38 34 33 35 36 37 37 35 37 39 37
29 30 29 28 27 26 25 24 24 25 25 23 22 19 16 14 13 12 12 11 11 9 7 6 3 5 12 17 17 16 15 13 13 14 17 24 28 26 21 22 24 19 15 16 15 17 19 17 13 12 12 8 4 4 3 5 5 3 1 3 6 5 6 5 2 9 17 15 9 8 7 7 13 23 32 38 39 36 32 32 35 35 36 37 35 37 39 38
29 29 29 29 28 27 25 23 23 23 24 21 20 18 12 10 12 11 8 8 7 3 5 8 6 1 12 17 16 18 16 10 10 13 13 18 28 29 21 22 24 21 18 16 17 19 17 13 7 4 6 6 5 6 5 7 6 5 5 3 5 5 6 7 3 7 15 15 11 10 8 10 17 21 28 36 39 34 32 34 36 36 37 37 36 37 39 39
28 28 28 28 27 28 26 24 22 22 22 18 16 13 8 12 14 7 6 13 10 3 3 9 12 5 8 13 16 16 14 12 12 14 14 15 26 31 25 20 21 22 18 9 11 16 13 6 5 6 6 6 6 7 8 9 7 7 7 5 6 6 6 8 4 7 14 13 11 12 10 13 19 20 22 32 37 33 32 34 34 35 36 37 37 38 40 40
29 29 29 27 25 26 25 24 21 21 21 16 16 13 11 16 12 5 14 24 22 18 18 19 20 22 22 23 24 18 16 18 15 14 15 16 23 28 28 23 19 19 14 5 7 14 13 6 7 9 7 7 7 7 9 9 8 9 7 6 8 6 8 9 5 8 14 11 9 13 13 15 20 20 21 30 33 27 27 29 30 33 34 36 38 39 41 43
32 31 30 29 26 24 24 24 21 19 17 14 18 16 13 17 10 10 24 29 26 22 25 29 28 34 37 33 31 25 19 18 15 13 14 18 25 23 24 23 12 9 9 7 8 11 13 8 9 10 7 7 7 7 8 8 10 9 7 8 8 6 10 10 5 9 14 10 8 11 13 15 18 18 19 27 24 20 26 27 28 34 35 37 40 41 44 44
33 32 33 32 29 26 22 23 21 17 14 11 14 14 14 17 12 15 23 22 26 24 25 32 32 38 43 39 38 31 19 16 18 17 12 19 29 20 17 18 9 5 6 7 7 7 9 9 10 10 7 8 8 8 9 9 10 9 7 7 7 7 8 9 7 8 12 7 7 11 12 13 17 17 19 23 22 23 34 36 34 38 36 35 40 42 44 42
32 32 34 33 32 29 23 24 21 13 10 10 11 12 13 16 13 18 19 14 25 28 27 33 36 40 43 41 40 31 19 16 21 22 14 17 29 26 18 14 8 7 7 7 9 7 6 7 10 10 8 10 9 10 10 9 8 8 8 6 8 10 5 5 7 7 11 6 9 13 9 8 12 14 16 24 29 29 37 41 40 43 41 40 43 44 45 43
32 31 32 33 33 31 27 24 14 8 11 11 9 9 12 15 12 19 20 9 14 20 22 28 31 39 42 35 29 25 25 24 21 24 20 17 26 26 17 14 10 8 9 10 11 11 6 5 11 12 10 12 11 12 11 8 7 8 11 9 9 12 7 6 7 4 7 6 7 12 6 2 7 12 12 18 24 25 31 36 34 39 44 44 45 45 47 47
32 31 31 32 32 32 30 20 8 11 15 8 6 8 11 13 11 18 17 6 8 10 13 15 21 31 34 26 21 24 27 27 29 31 26 20 25 22 13 15 13 8 12 12 10 11 9 8 13 13 12 13 12 11 12 9 6 7 12 14 14 14 9 10 10 4 3 5 4 9 6 3 5 11 13 12 13 15 22 26 26 34 39 40 41 42 46 49
32 31 30 31 31 32 30 17 12 19 16 6 7 10 11 12 10 14 11 3 5 5 3 5 12 14 17 21 24 20 13 19 33 38 31 23 25 23 11 10 9 9 13 10 6 6 9 11 12 12 13 15 13 11 13 11 6 6 9 12 15 14 10 12 13 4 3 5 5 9 8 3 4 8 14 14 14 14 17 19 23 32 36 37 40 42 45 47
31 30 29 29 29 31 30 23 20 22 16 11 13 11 11 10 9 10 5 2 4 5 5 5 9 6 8 18 29 21 4 9 22 33 38 29 26 26 14 7 6 8 9 6 6 4 8 13 13 13 13 13 12 10 12 11 8 8 7 8 12 13 13 15 13 7 5 5 5 7 6 4 5 9 13 16 17 14 14 16 19 27 35 39 41 43 46 48
29 29 28 27 26 26 28 28 25 21 15 16 17 13 10 8 8 6 2 2 3 3 3 5 6 3 5 18 35 23 4 12 12 25 45 36 26 23 13 10 9 8 9 8 8 6 8 13 15 15 13 10 10 10 12 12 9 9 6 7 10 11 12 13 11 8 6 5 7 6 4 2 4 7 9 13 17 15 15 18 18 24 35 41 42 44 47 50
28 28 27 27 25 21 24 27 23 18 14 17 18 12 9 8 6 3 3 2 3 1 1 6 5 5 12 20 29 21 7 10 6 17 40 35 29 22 10 13 13 7 11 10 8 6 6 13 17 15 12 8 9 11 13 13 10 9 7 8 11 11 10 10 8 7 5 6 8 8 8 4 5 4 7 8 12 15 15 16 16 23 35 41 43 45 47 49
28 27 25 26 25 21 24 20 13 13 15 19 19 13 11 7 2 2 3 3 2 3 2 5 5 11 18 13 13 15 9 7 4 12 29 28 30 26 12 16 14 5 8 9 10 9 7 13 16 13 12 11 10 12 14 15 13 9 7 7 9 9 8 6 4 5 4 5 8 10 13 11 6 4 9 10 13 17 15 13 14 19 30 39 42 46 47 48
29 27 24 24 24 25 27 17 8 15 20 19 18 13 9 4 2 2 6 2 3 5 2 1 3 12 18 11 8 11 8 6 3 9 16 15 19 18 9 11 10 4 5 7 9 11 10 11 9 8 14 14 11 11 12 15 17 11 6 6 6 5 5 4 3 3 5 6 7 10 15 15 9 5 8 13 17 20 17 15 16 16 23 35 41 45 48 49
30 28 24 22 22 23 27 21 14 19 19 14 14 10 3 0 2 4 4 3 2 4 1 2 1 4 10 10 7 11 10 6 6 6 9 10 10 12 10 8 7 7 7 7 7 7 8 10 8 8 14 15 10 8 9 10 13 12 7 6 6 5 4 5 5 4 5 7 6 9 13 12 10 7 10 15 16 18 18 19 22 21 24 34 40 44 48 49
31 29 25 20 21 23 24 23 20 19 15 9 8 4 3 2 5 5 5 4 2 1 4 7 10 9 5 6 4 9 11 8 8 7 8 11 9 11 13 11 9 8 6 6 6 4 4 7 10 10 10 12 11 7 7 7 9 11 9 7 7 6 6 7 6 4 5 6 6 9 10 7 6 6 11 18 19 21 24 27 33 33 33 37 41 46 48 49
33 31 26 19 19 20 18 18 17 15 10 4 1 2 2 6 4 3 6 7 8 7 7 10 15 13 7 5 5 7 7 7 9 7 6 9 9 9 12 12 13 9 3 4 6 7 6 6 9 11 8 10 13 10 8 7 8 10 8 7 7 6 6 6 5 4 4 5 5 5 6 5 5 6 11 17 19 23 31 36 38 38 39 41 44 45 46 47
34 32 25 19 17 14 14 16 13 8 5 1 3 1 6 7 2 0 3 4 6 9 11 13 9 8 6 4 6 8 9 8 9 9 7 8 9 9 10 12 14 11 6 5 4 6 10 9 7 11 10 10 10 9 9 7 6 8 6 6 7 7 5 3 4 5 4 3 4 3 4 5 5 7 12 16 17 20 26 31 31 32 37 38 39 42 43 46
36 32 23 18 14 12 15 20 17 7 5 4 3 4 7 4 1 2 3 4 4 8 14 13 5 3 4 3 5 6 10 9 8 9 7 7 10 10 10 10 13 14 9 7 4 4 8 8 7 9 10 12 13 8 9 10 6 5 8 8 5 6 6 3 4 2 2 3 5 4 4 4 3 5 8 13 16 16 17 19 21 28 35 34 33 39 43 45
36 33 26 18 11 11 14 21 19 10 10 6 4 6 4 2 3 4 8 10 8 7 9 7 4 4 4 2 4 4 3 6 9 8 6 6 7 11 13 10 14 18 13 9 5 3 5 5 7 11 11 14 19 14 10 10 9 5 7 8 3 5 5 4 2 3 4 5 5 5 6 4 2 4 5 8 14 16 15 15 17 24 29 29 32 39 43 46
33 33 28 12 6 11 17 20 16 10 13 6 6 7 2 2 6 10 12 14 11 6 4 4 2 2 3 3 4 7 9 6 3 4 6 6 5 10 15 10 12 19 18 14 7 3 5 4 6 11 13 13 15 14 10 10 11 9 6 6 5 5 5 4 4 5 6 5 4 4 6 5 5 4 5 9 15 16 16 16 17 19 21 26 34 39 43 46
29 29 22 8 9 22 25 22 11 11 14 5 6 6 2 4 9 13 16 15 11 8 5 3 4 4 4 5 7 8 8 6 5 6 4 5 5 11 17 12 12 18 20 17 9 3 5 5 5 7 12 10 8 8 9 9 10 8 6 5 4 4 6 5 4 5 5 4 4 4 5 5 5 6 8 12 15 17 16 15 15 17 22 31 36 38 41 43
25 19 16 16 23 30 28 20 4 12 11 5 5 5 4 6 8 13 19 16 10 7 5 3 6 7 7 8 10 8 7 6 7 7 5 4 5 8 15 14 11 15 21 21 14 7 4 5 5 5 6 9 7 6 10 9 8 8 7 7 5 3 3 5 4 3 5 5 4 4 5 6 5 5 9 13 15 16 16 15 15 18 27 37 39 39 41 42
22 8 15 26 30 30 28 17 2 5 5 5 5 5 6 8 8 12 19 20 14 10 10 9 10 10 9 10 10 8 7 7 7 6 5 6 7 5 8 13 13 14 17 17 14 10 5 4 6 6 6 6 6 5 11 14 12 10 8 8 8 5 4 5 5 3 2 5 5 4 5 7 6 5 8 11 13 13 15 16 15 18 29 37 40 42 43 44
15 7 22 32 30 30 27 11 2 2 2 5 6 8 10 10 10 11 16 20 16 12 12 12 10 10 9 9 9 9 8 8 8 7 5 7 10 9 7 7 11 17 15 12 15 14 9 5 5 8 8 7 8 7 10 17 17 13 11 9 8 6 5 6 5 3 2 4 5 4 4 7 6 5 7 9 10 12 17 19 15 18 29 37 40 44 45 46
11 17 33 34 27 26 18 3 3 4 2 8 11 12 13 11 10 10 11 12 10 8 9 9 9 10 9 8 10 10 8 9 10 11 11 10 12 13 11 15 13 8 14 10 13 13 9 6 6 7 7 8 9 7 6 11 15 13 11 10 9 7 6 6 5 4 3 4 4 4 6 7 6 5 6 6 8 11 15 18 17 19 28 36 40 42 44 46
17 26 34 28 24 20 8 0 5 6 5 11 11 11 14 12 10 10 9 8 7 6 6 7 8 10 9 8 9 8 8 9 8 9 10 8 10 15 13 25 28 9 7 6 11 13 8 6 6 6 6 8 9 7 6 8 11 9 9 12 14 12 9 6 3 4 3 5 6 5 7 7 6 6 6 4 5 6 9 14 18 20 25 32 38 40 44 48
17 18 19 22 25 16 4 3 5 6 9 12 11 11 13 12 12 13 10 9 9 7 6 7 9 10 7 7 8 7 7 7 3 6 10 8 9 13 17 28 26 12 12 14 6 14 12 8 8 9 10 11 9 8 8 7 6 6 7 13 17 16 14 8 4 5 6 5 6 5 6 6 6 7 11 12 9 5 5 10 16 21 25 30 34 38 43 47
10 8 8 16 20 11 6 9 8 6 9 11 10 10 10 10 13 18 15 8 7 9 8 8 10 9 6 8 8 6 7 9 7 6 8 9 7 7 17 26 19 12 19 24 15 3 9 8 12 14 13 12 10 7 5 6 7 8 8 13 17 18 17 11 5 6 6 4 5 6 5 4 8 7 12 16 15 8 6 7 11 18 25 30 34 38 42 45
5 3 5 10 11 7 8 11 9 8 9 10 7 7 11 11 10 13 13 7 9 12 8 6 8 7 7 9 8 6 8 10 10 7 6 9 9 10 18 18 11 15 19 18 17 9 5 9 15 19 16 15 13 9 7 7 10 13 11 13 17 18 17 14 10 8 7 6 8 7 6 7 10 8 10 15 14 8 7 8 11 18 25 31 38 41 40 39
4 5 9 11 6 4 7 11 13 12 10 9 6 6 10 12 8 9 11 11 14 15 8 5 6 8 11 11 7 6 8 8 8 6 7 9 11 14 17 9 5 16 20 14 15 9 3 8 13 19 19 17 16 15 14 8 7 12 14 14 16 18 18 17 14 10 10 8 8 6 9 9 9 8 9 12 10 7 9 13 17 24 30 33 36 39 38 37
6 8 11 9 5 6 11 15 18 14 10 8 6 6 8 10 10 9 8 9 12 11 9 7 7 10 12 11 7 5 6 7 6 5 6 10 12 11 12 7 5 12 16 14 13 6 2 7 9 16 18 18 17 18 18 12 7 9 13 14 16 18 20 20 16 12 12 11 8 9 11 10 8 9 9 11 11 8 9 13 13 18 26 30 30 32 36 38
8 8 9 7 6 10 14 14 13 10 9 7 5 5 6 8 10 10 8 8 9 8 7 9 11 11 9 8 7 5 7 8 7 7 8 10 10 7 6 6 8 12 14 11 9 5 3 6 7 9 13 16 18 19 19 17 11 8 10 12 14 17 18 18 15 10 8 7 6 9 11 9 7 7 7 9 11 7 5 8 11 14 20 25 26 28 32 37
11 11 12 8 6 8 9 9 8 6 5 4 4 6 7 7 9 10 10 9 10 10 9 11 12 11 9 9 8 9 11 9 9 10 11 11 10 9 8 7 10 14 13 9 8 6 3 5 7 3 8 12 15 19 21 20 13 10 11 11 11 13 14 13 12 10 8 7 7 8 8 7 7 8 7 6 7 7 5 6 9 13 16 20 24 28 32 36
11 12 12 8 5 6 6 6 6 5 4 4 4 6 9 11 11 9 7 7 9 14 18 17 12 7 7 9 10 15 17 14 14 18 19 19 19 19 18 16 16 16 11 8 8 6 3 4 6 4 5 9 13 18 19 16 12 11 11 11 9 9 8 7 8 10 11 10 9 7 8 9 8 8 8 7 7 7 8 8 9 13 19 21 23 29 33 36
Wind_Direction
338 336 334 332 331 328 326 323 320 319 317 315 315 314 313 311 310 309 308 309 308 307 306 305 303 302 302 303 299 296 298 297 298 291 281 283 287 278 253 218 210 212 219 219 221 221 212 206 201 194 192 199 221 233 236 237 233 226 204 222 241 214 204 205 190 184 176 215 270 141 131 127 129 123 129 136 136 144 152 150 145 141 144 151 151 151 154 154
339 338 334 334 333 330 328 324 322 320 317 316 315 314 312 311 310 309 309 309 308 308 307 305 303 303 305 305 303 301 300 300 300 293 289 299 279 250 219 204 208 209 218 213 213 217 214 212 202 191 194 204 218 226 236 234 220 212 150 220 231 210 216 202 187 173 166 194 206 142 134 133 134 133 138 137 142 149 135 125 128 122 134 143 146 152 157 157
339 338 336 336 334 331 329 325 323 320 318 317 315 314 313 311 310 309 308 308 308 308 306 306 305 304 306 306 305 306 306 309 303 297 319 344 277 237 201 192 199 201 212 208 205 215 220 216 203 192 196 210 223 226 237 236 221 210 188 231 239 225 228 215 187 170 176 183 176 159 143 136 142 144 146 147 152 152 139 140 136 132 142 146 150 157 159 160
338 337 336 336 334 332 329 325 323 320 318 316 315 314 311 310 309 308 308 307 307 307 307 306 305 305 309 307 306 309 315 316 304 299 20 5 315 230 192 186 192 195 196 198 203 216 222 213 205 199 198 215 229 231 238 233 225 203 197 224 243 233 222 235 206 173 178 185 172 164 147 143 152 151 151 152 152 154 156 158 154 150 152 152 155 158 158 161
339 337 336 335 333 331 329 326 323 320 318 316 315 313 310 310 307 307 306 306 306 306 306 304 304 308 309 308 307 308 320 330 296 225 41 27 27 172 187 186 188 191 193 198 209 218 219 209 206 204 203 225 230 232 241 230 224 225 228 233 245 242 216 245 225 175 174 194 176 157 148 157 160 155 156 157 160 171 168 166 161 157 157 158 160 161 161 163
338 336 335 333 331 329 327 325 323 321 319 316 315 312 310 308 305 305 303 303 304 303 304 302 303 306 309 309 306 304 305 276 253 240 140 68 60 91 175 191 191 195 204 206 213 215 215 213 212 211 208 227 220 221 241 228 216 230 249 241 245 242 228 236 224 175 170 188 168 157 158 162 161 158 163 166 174 171 168 167 163 161 161 162 162 164 166 167
338 336 334 332 329 327 325 324 322 321 319 317 316 313 311 308 306 304 301 301 299 300 301 299 301 304 308 306 303 303 267 261 273 254 218 161 90 109 153 185 194 204 211 214 218 216 217 217 218 220 217 230 223 226 243 235 217 225 247 249 248 244 234 222 208 173 175 184 165 161 159 163 164 161 167 167 166 163 164 165 163 161 161 162 164 167 170 171
339 337 334 332 329 327 325 323 321 320 318 316 314 312 311 308 307 304 302 299 295 296 296 295 299 299 303 303 303 302 272 275 293 205 211 226 219 226 197 179 189 206 215 220 223 222 222 219 221 223 220 233 231 233 248 247 233 232 243 255 256 247 234 218 194 169 177 185 169 160 158 175 172 162 164 153 149 157 159 160 160 158 160 163 166 170 172 173
341 338 335 333 330 328 325 324 322 320 317 314 312 310 309 308 306 304 301 297 294 293 291 291 294 294 297 296 297 296 278 280 341 182 208 225 220 216 217 206 201 207 219 224 225 226 221 221 223 219 225 246 245 250 258 257 239 239 250 264 265 255 238 217 192 175 177 179 167 157 161 177 161 150 150 144 148 154 155 156 159 158 161 164 168 173 174 176
342 339 337 334 331 329 326 325 323 321 318 313 310 308 307 307 305 303 298 295 292 289 288 287 288 291 290 288 281 266 271 264 282 254 217 225 221 211 218 225 224 220 226 226 225 226 220 221 221 222 247 264 257 257 260 256 264 276 285 285 279 278 259 205 187 185 174 170 166 156 162 153 138 133 128 145 149 151 152 154 159 161 163 166 169 174 176 179
341 340 338 335 332 330 327 326 324 323 320 315 311 307 305 305 304 303 297 292 288 288 285 283 285 284 282 277 241 240 268 256 280 278 228 234 225 215 223 229 232 231 231 231 230 231 225 221 219 227 261 267 259 261 265 264 275 288 293 294 281 282 277 206 182 183 170 172 170 156 144 133 130 135 144 152 151 152 153 154 161 164 166 168 171 176 179 181
340 339 338 336 333 331 328 327 325 324 321 317 314 309 305 303 302 301 296 289 286 285 282 280 282 278 281 271 248 245 256 243 265 279 261 258 232 219 230 229 234 233 232 236 235 235 229 223 221 230 248 258 272 266 273 278 291 299 294 299 284 290 292 225 178 177 176 172 163 146 123 133 134 143 150 153 153 155 155 156 162 165 167 169 173 178 182 184
339 337 337 336 334 332 329 327 326 324 321 317 314 313 309 302 300 299 293 286 283 284 280 277 277 276 276 264 256 256 262 264 273 271 255 249 237 230 231 227 233 232 227 233 236 235 230 225 224 233 245 255 277 272 284 295 309 310 296 292 288 315 302 228 168 175 181 159 155 144 133 177 148 148 152 155 156 155 156 160 164 165 167 170 174 179 183 186
338 337 336 335 334 332 330 328 327 324 321 316 315 317 313 303 299 295 288 285 284 283 280 275 274 275 263 260 266 272 275 272 269 259 237 225 228 228 229 224 226 230 221 226 234 230 224 224 227 238 249 251 261 274 289 301 311 313 310 307 290 313 283 257 165 171 177 162 157 142 155 192 150 153 156 158 158 157 159 163 166 167 169 172 176 180 183 187
339 337 335 334 333 332 331 329 327 325 320 315 318 321 316 308 301 293 286 284 284 282 279 276 273 270 264 268 274 281 274 259 254 247 218 209 218 217 218 214 217 229 229 234 234 221 216 221 228 236 252 255 255 268 288 303 309 330 297 298 301 233 273 289 172 169 162 167 162 134 137 176 149 159 160 160 160 159 161 165 167 168 170 174 178 182 185 190
340 339 335 334 333 332 332 330 328 325 319 317 322 323 320 317 309 300 295 287 283 281 274 271 265 254 261 276 281 281 259 242 249 248 214 207 210 209 213 212 214 222 227 235 236 232 232 232 236 238 247 255 247 236 275 301 309 341 189 257 280 263 275 306 183 169 151 157 169 137 148 166 152 162 161 162 163 161 162 166 169 169 172 176 180 184 186 190
341 339 336 336 334 333 332 330 330 325 319 322 327 328 329 330 326 319 312 302 289 272 248 230 232 259 257 264 277 270 243 229 254 256 222 210 206 204 213 216 213 210 213 224 230 235 239 237 237 241 239 239 215 189 229 258 264 287 227 238 259 255 265 285 255 176 153 154 173 155 157 164 158 162 163 165 165 164 164 167 170 171 174 178 181 185 187 191
341 339 337 337 336 334 334 332 331 325 320 327 334 335 340 345 343 335 332 342 329 258 217 203 159 344 261 250 266 269 250 242 276 265 233 211 207 205 205 213 211 204 205 214 222 227 233 234 218 222 231 218 212 186 196 226 220 230 223 231 262 254 258 257 241 174 163 161 166 159 160 157 157 162 166 168 168 167 168 169 171 173 175 179 182 185 188 192
341 339 337 337 337 335 334 334 333 325 322 332 346 349 358 358 353 354 345 336 323 270 248 208 181 200 263 261 271 281 268 258 290 279 237 204 206 206 198 208 218 208 202 201 216 217 212 222 211 216 228 212 213 196 208 227 209 220 226 221 251 258 260 252 234 177 171 168 167 163 163 157 159 166 168 171 171 169 170 170 171 174 176 180 182 186 189 193
341 339 337 337 340 337 334 336 334 326 322 334 358 11 19 3 358 351 328 314 292 271 271 253 230 239 258 268 264 271 280 269 280 274 240 204 196 202 200 210 223 210 198 180 200 206 196 205 225 218 218 209 217 211 211 229 230 238 244 240 249 258 264 258 247 198 178 168 180 171 162 163 165 169 169 171 172 170 170 171 173 176 177 180 183 186 190 194
341 339 338 337 340 340 336 335 333 326 320 331 359 15 19 1 348 325 323 309 290 274 266 261 251 248 255 260 256 263 287 287 270 250 243 214 191 190 201 207 215 209 198 188 192 201 195 209 229 218 215 210 217 225 215 225 237 242 245 251 258 250 258 267 270 219 188 167 189 175 159 169 171 170 169 169 170 172 174 174 175 178 179 182 184 187 191 195
340 339 338 336 338 341 339 337 332 324 316 325 357 15 15 358 346 331 325 306 291 281 263 261 256 253 256 255 253 258 272 282 267 245 231 208 194 185 191 195 200 207 195 190 191 202 205 217 223 209 207 212 220 231 225 227 234 241 242 248 257 250 259 278 283 229 200 173 181 176 163 175 178 174 169 168 174 178 178 178 178 179 180 182 185 187 191 193
338 338 337 336 336 337 340 339 330 321 320 325 344 2 1 347 342 336 330 305 293 285 261 255 248 246 251 249 248 247 240 249 257 244 221 196 193 185 179 184 195 202 198 201 198 199 212 218 213 199 196 209 221 229 226 231 233 235 237 233 247 249 242 266 278 228 210 200 178 177 168 174 178 176 174 174 177 180 181 182 181 181 182 185 188 189 190 191
337 337 335 335 334 333 338 338 330 330 330 324 332 342 338 330 340 346 336 299 285 282 265 258 244 239 243 241 238 224 215 227 240 232 217 197 188 184 182 182 183 201 210 210 206 211 221 201 199 200 200 205 217 226 223 224 231 235 234 228 239 246 227 228 268 257 223 234 184 166 145 172 184 176 183 182 178 178 181 183 183 184 185 187 189 190 190 192
335 335 334 335 333 331 334 336 335 333 327 320 321 315 315 317 334 353 343 299 272 278 275 262 236 237 240 232 224 208 206 222 229 222 220 210 188 178 183 186 181 205 212 209 211 219 227 205 197 202 205 207 212 223 222 215 221 240 237 232 234 241 239 237 260 288 233 255 206 155 143 259 226 184 183 184 179 179 180 182 185 187 189 188 189 191 192 194
333 332 333 334 334 332 331 334 333 331 331 325 314 302 303 309 323 347 348 308 282 261 244 216 210 226 224 208 200 186 187 225 227 223 224 223 200 183 180 183 185 206 202 203 218 220 219 208 202 205 205 209 211 218 223 213 209 236 232 234 240 240 244 250 257 260 204 244 223 173 173 212 239 205 189 180 183 184 179 183 186 187 190 190 190 192 193 195
331 329 331 331 334 335 331 327 327 333 337 321 314 307 305 312 324 344 360 324 291 209 165 180 196 194 197 190 175 160 142 213 216 222 219 218 207 194 189 181 186 202 187 186 217 205 192 199 210 214 207 210 212 214 218 206 209 235 213 215 245 244 240 247 253 244 215 250 257 215 194 169 193 211 197 181 181 186 183 186 188 188 190 192 193 194 194 195
330 327 329 326 328 334 326 318 320 327 330 318 317 312 312 328 328 341 77 310 301 162 156 184 197 203 186 173 168 167 163 149 166 218 213 211 208 195 192 197 191 193 183 184 213 201 173 193 207 212 214 216 211 213 213 202 216 240 207 201 237 245 243 243 247 248 219 221 257 242 201 192 222 212 199 187 183 187 192 192 192 190 191 193 194 195 196 197
329 328 331 323 320 324 312 309 315 319 320 321 322 319 329 347 337 9 114 254 290 304 241 178 186 171 149 155 173 188 193 160 173 208 200 205 211 206 206 204 195 192 198 201 217 207 187 203 203 204 220 220 205 215 214 205 218 228 201 210 235 241 248 245 239 246 222 200 231 220 185 211 268 215 187 195 191 194 199 198 196 192 191 192 194 196 197 197
329 329 332 322 318 317 306 306 319 319 322 325 322 326 338 343 28 83 201 239 297 275 211 163 177 152 143 145 188 210 214 221 260 176 183 197 207 212 220 206 200 196 206 216 224 222 219 217 208 202 217 213 199 211 214 211 217 215 189 208 240 246 249 259 241 224 220 225 232 212 190 195 243 230 185 193 195 194 198 200 199 194 192 193 194 195 196 197
329 330 330 322 318 313 303 304 328 321 320 321 315 318 332 332 108 158 219 251 326 253 220 168 177 143 153 163 185 207 222 251 255 148 172 189 196 206 205 198 204 200 214 226 228 232 235 230 223 208 212 208 197 206 214 212 213 215 193 190 228 257 266 278 264 208 216 241 241 213 195 193 217 237 201 204 201 194 193 195 196 195 194 195 194 195 196 197
330 329 328 320 312 301 293 295 308 310 311 313 308 313 355 237 222 217 238 341 337 221 82 355 340 121 183 193 171 190 198 218 221 164 169 183 192 201 194 190 191 190 215 219 213 229 232 233 239 229 219 209 198 204 215 213 209 210 196 173 194 223 241 242 238 227 220 241 244 204 193 197 215 217 198 204 206 199 197 195 194 195 195 195 195 195 196 196
332 329 330 323 308 296 291 295 298 299 305 303 294 321 69 202 230 202 224 281 285 241 31 358 338 344 255 228 211 194 189 206 215 188 179 187 192 205 207 204 190 187 204 198 198 217 245 249 236 233 234 216 205 198 206 212 205 204 193 176 188 196 208 222 232 246 226 243 246 198 189 203 221 219 198 199 202 198 197 198 197 197 197 197 196 196 196 196
332 330 332 329 314 309 310 312 302 291 294 286 274 43 148 223 240 172 203 242 284 311 1 355 332 326 304 253 232 191 187 223 215 187 179 186 192 207 209 205 197 191 158 156 195 203 218 246 222 217 220 208 210 206 194 186 189 207 193 164 188 194 192 204 206 212 219 248 257 200 187 195 197 208 201 200 203 196 196 200 200 198 198 198 198 196 195 196
331 329 328 323 323 341 359 356 340 297 262 128 78 127 201 220 264 46 218 244 292 312 338 347 327 299 297 270 241 205 192 213 212 199 191 183 193 200 201 204 197 187 167 177 203 194 214 239 230 224 221 202 211 206 181 167 183 210 186 161 201 193 170 198 204 186 174 222 252 209 195 210 208 216 201 198 203 197 197 200 197 197 199 198 196 195 194 196
332 333 328 321 335 11 12 3 358 314 230 127 105 220 220 234 261 262 306 349 356 340 339 345 357 305 293 275 272 233 200 203 201 206 212 196 200 198 196 204 195 192 189 188 202 173 203 238 233 227 235 221 218 208 181 179 181 205 197 194 198 154 153 220 253 239 150 202 242 223 229 273 277 250 219 201 201 199 199 198 192 196 199 196 195 195 195 195
338 336 328 327 356 15 353 350 348 295 228 164 178 230 227 256 282 297 319 331 338 351 348 341 359 339 300 283 321 323 271 229 195 195 211 201 201 194 197 204 195 198 193 181 211 188 178 247 238 216 234 233 223 223 218 197 171 168 203 203 161 123 152 181 208 253 220 223 255 230 222 246 227 246 248 203 200 202 197 193 195 199 197 195 197 198 196 196
340 335 325 328 22 348 325 327 328 252 209 183 219 243 247 275 303 317 317 320 322 334 336 297 272 287 288 307 328 339 340 322 213 211 218 208 210 190 191 201 197 199 194 183 205 215 178 251 264 217 221 231 221 219 234 224 196 183 189 188 170 167 188 183 180 208 213 221 267 254 231 217 197 224 229 200 204 207 198 192 195 197 196 199 201 200 198 196
344 339 322 314 342 332 324 325 319 201 194 204 220 230 260 260 278 292 297 306 308 305 297 244 241 269 291 312 313 321 331 320 312 310 254 212 220 192 185 189 192 197 194 187 197 213 184 221 267 234 217 217 213 205 215 230 219 202 188 185 180 176 191 200 188 178 189 209 235 243 243 237 219 208 199 202 207 207 199 193 194 195 197 201 202 201 199 196
348 340 307 315 336 335 332 333 324 180 197 232 213 225 262 263 276 284 291 299 299 295 296 290 294 292 296 304 300 302 309 300 299 303 287 260 256 208 188 185 182 189 194 194 198 201 185 196 232 270 242 211 211 205 196 204 211 206 203 203 201 186 180 202 209 167 155 178 201 211 229 254 249 202 189 202 209 207 200 192 193 199 200 201 201 200 198 197
349 328 294 324 344 347 345 346 9 177 227 235 225 245 248 256 274 275 278 281 279 276 279 283 284 280 291 296 290 292 296 291 281 271 275 275 276 265 198 188 176 175 190 199 199 197 195 196 209 247 259 223 222 213 188 191 198 201 206 206 199 186 149 180 239 277 144 174 183 185 226 260 256 204 189 202 207 205 200 195 196 201 201 200 201 201 200 198
346 283 299 327 349 354 352 351 320 325 279 249 265 259 244 247 256 258 262 266 268 273 275 276 272 271 276 272 276 287 286 289 282 268 269 268 277 293 278 240 197 177 180 198 203 195 188 182 203 227 243 236 231 231 202 197 197 196 207 205 189 183 165 172 219 260 235 212 187 168 231 264 255 211 191 203 210 205 200 198 199 199 199 199 199 201 201 199
325 292 307 329 354 353 348 334 292 328 289 292 298 279 266 260 258 269 269 263 266 267 270 277 278 282 281 270 274 274 273 281 268 261 268 264 274 278 289 339 341 208 187 193 198 193 190 192 201 222 248 256 247 263 257 213 200 199 207 200 188 191 178 169 182 176 196 224 195 197 239 260 266 236 202 202 213 216 212 206 203 199 197 197 197 198 198 198
311 301 308 330 354 350 340 289 320 331 323 314 316 311 302 289 276 281 276 276 291 287 281 293 294 294 298 303 302 290 288 287 254 262 278 262 284 293 311 357 356 317 227 219 186 177 189 196 179 187 222 245 250 264 270 232 213 209 200 195 201 192 167 160 166 160 221 220 173 188 236 250 264 240 222 216 190 206 232 224 214 205 195 194 195 195 196 198
317 308 302 323 342 341 328 8 357 348 340 333 335 336 325 310 306 313 312 306 309 303 293 302 309 313 324 343 339 325 326 325 305 327 328 313 318 323 338 351 349 329 313 313 232 184 191 192 181 191 203 213 221 227 222 208 211 223 198 191 201 196 181 173 156 181 227 218 161 179 231 264 279 231 222 243 240 218 235 226 213 205 196 193 193 193 196 200
318 312 296 322 338 340 340 358 15 10 343 338 335 330 331 328 320 322 325 322 309 306 306 308 313 321 342 352 342 327 339 340 327 335 339 326 321 322 331 335 333 324 327 333 337 249 206 198 196 201 207 207 207 219 210 166 179 215 206 189 197 201 194 180 167 195 197 179 202 208 187 238 276 230 207 237 249 230 201 204 203 200 193 190 192 195 199 203
304 291 301 328 337 336 339 349 6 1 330 324 324 312 319 324 317 319 324 323 316 316 311 299 304 320 344 348 336 321 337 333 320 332 346 325 317 313 320 326 333 343 341 342 349 343 241 221 207 201 208 209 201 211 216 178 187 203 201 195 199 201 194 187 199 201 151 156 231 231 173 203 254 240 210 230 239 220 197 197 193 193 189 188 195 200 202 204
279 280 303 317 316 317 334 329 328 331 324 321 316 297 310 320 324 329 328 327 327 326 318 286 302 345 353 347 340 327 339 332 313 338 359 331 326 331 331 330 351 359 358 345 339 343 260 248 215 199 208 210 201 212 217 198 195 204 199 196 198 199 197 198 204 186 155 181 220 203 179 201 234 242 236 237 227 202 206 208 199 195 191 190 196 200 202 203
275 277 295 311 304 292 299 302 308 315 320 325 311 289 311 325 327 327 330 336 332 329 334 321 329 2 356 342 343 333 333 332 317 338 354 331 328 332 328 322 336 0 359 337 326 339 298 282 232 200 206 207 201 211 216 203 187 202 209 202 196 199 200 203 206 188 180 199 197 175 191 209 223 224 230 244 239 217 204 207 210 209 197 190 191 195 199 202
275 279 295 309 300 288 288 295 308 312 310 314 296 286 311 322 323 328 335 331 312 309 337 329 319 334 332 317 326 311 301 310 306 312 320 316 323 325 310 311 318 329 337 324 318 347 352 297 263 210 201 206 204 205 215 214 191 186 221 218 203 201 200 203 207 191 183 202 189 181 203 226 242 229 224 242 243 227 183 179 196 210 198 187 188 195 200 203
279 286 295 298 289 289 292 299 307 302 297 306 293 302 317 309 312 325 321 302 286 292 320 318 308 317 313 300 299 283 281 283 275 286 293 284 285 285 280 290 297 304 316 312 303 321 332 306 304 255 203 209 204 199 211 221 210 202 223 222 204 200 200 202 202 188 182 190 182 181 203 230 250 245 240 233 209 194 184 168 177 191 192 192 195 199 201 203
291 296 300 299 287 290 295 296 298 296 292 302 304 307 306 299 305 321 315 296 293 303 311 307 298 304 306 292 285 282 282 279 276 282 280 271 267 264 260 261 265 271 283 294 293 292 286 308 326 304 235 214 199 198 206 213 221 229 220 202 192 190 194 208 218 212 203 188 181 196 210 214 220 224 224 213 197 202 205 188 179 186 191 197 201 200 201 201
Height
1528 1527 1526 1524 1523 1522 1521 1520 1519 1518 1517 1516 1515 1514 1513 1512 1511 1510 1509 1508 1507 1506 1504 1503 1502 1501 1500 1499 1498 1497 1495 1494 1493 1492 1488 1483 1484 1486 1487 1489 1491 1492 1493 1493 1495 1496 1497 1498 1499 1502 1503 1504 1505 1503 1503 1503 1503 1505 1507 1513 1514 1510 1507 1498 1496 1495 1494 1493 1490 1489 1489 1494 1499 1501 1503 1506 1508 1509 1514 1517 1517 1519 1519 1520 1522 1525 1527 1529
1527 1526 1524 1523 1522 1520 1519 1518 1517 1516 1515 1514 1513 1512 1511 1510 1509 1508 1507 1506 1505 1504 1503 1501 1500 1500 1499 1498 1496 1495 1493 1492 1490 1487 1483 1480 1481 1481 1482 1486 1488 1489 1490 1490 1491 1493 1495 1496 1497 1500 1501 1502 1502 1500 1501 1499 1499 1501 1504 1511 1508 1501 1494 1486 1487 1486 1487 1490 1488 1489 1488 1491 1495 1498 1502 1505 1510 1511 1514 1518 1519 1521 1522 1524 1525 1526 1529 1530
1526 1525 1523 1522 1520 1519 1518 1516 1515 1514 1513 1512 1511 1510 1509 1508 1507 1506 1505 1504 1503 1502 1501 1500 1499 1498 1497 1496 1495 1494 1492 1490 1487 1483 1480 1479 1478 1477 1479 1482 1485 1486 1487 1488 1490 1492 1494 1495 1497 1499 1500 1500 1499 1499 1499 1497 1496 1497 1501 1509 1500 1489 1485 1482 1483 1482 1482 1484 1485 1490 1488 1489 1493 1495 1499 1503 1508 1510 1512 1515 1517 1520 1522 1524 1526 1527 1529 1531
1525 1523 1522 1521 1519 1518 1516 1515 1514 1512 1511 1510 1509 1508 1507 1506 1505 1504 1503 1502 1501 1500 1499 1498 1497 1496 1496 1495 1494 1493 1491 1489 1483 1479 1479 1478 1476 1475 1478 1480 1482 1485 1485 1488 1490 1492 1493 1495 1497 1497 1499 1499 1497 1497 1496 1494 1495 1494 1496 1501 1489 1482 1485 1481 1480 1479 1479 1482 1484 1487 1487 1489 1492 1493 1496 1500 1508 1512 1509 1509 1510 1514 1519 1522 1525 1527 1528 1531
1523 1522 1520 1519 1518 1516 1515 1513 1512 1511 1510 1508 1507 1506 1505 1504 1503 1502 1501 1500 1499 1498 1497 1496 1495 1494 1494 1493 1493 1491 1492 1491 1481 1477 1479 1477 1476 1476 1478 1480 1482 1483 1485 1488 1489 1491 1493 1494 1496 1497 1498 1497 1496 1497 1492 1489 1493 1493 1490 1488 1482 1482 1486 1480 1477 1478 1477 1481 1483 1483 1486 1488 1489 1491 1494 1495 1503 1506 1503 1505 1506 1509 1514 1518 1522 1526 1528 1530
1522 1521 1519 1517 1516 1515 1513 1511 1510 1509 1508 1506 1505 1504 1503 1502 1501 1500 1499 1498 1497 1496 1495 1494 1493 1493 1492 1491 1491 1490 1492 1490 1479 1477 1479 1477 1478 1478 1479 1481 1482 1484 1485 1486 1488 1490 1491 1492 1495 1495 1495 1494 1495 1494 1487 1486 1491 1493 1488 1482 1479 1478 1480 1478 1476 1477 1476 1478 1481 1480 1482 1485 1487 1490 1490 1491 1496 1497 1498 1503 1506 1508 1511 1516 1520 1524 1527 1528
1522 1520 1518 1516 1515 1513 1511 1510 1508 1507 1506 1504 1503 1502 1501 1500 1499 1498 1497 1496 1495 1494 1493 1492 1491 1491 1490 1490 1489 1489 1489 1483 1475 1476 1478 1477 1478 1479 1480 1481 1482 1483 1483 1485 1486 1487 1488 1490 1491 1491 1492 1492 1491 1487 1483 1485 1486 1489 1486 1479 1477 1474 1475 1476 1474 1474 1473 1475 1478 1478 1480 1482 1485 1488 1489 1492 1495 1497 1501 1503 1506 1510 1512 1517 1520 1522 1525 1526
1521 1519 1517 1515 1513 1512 1510 1508 1507 1505 1504 1502 1501 1500 1498 1497 1496 1496 1495 1494 1493 1492 1491 1490 1490 1489 1488 1488 1487 1487 1485 1477 1472 1475 1476 1476 1477 1478 1480 1480 1481 1482 1482 1483 1483 1485 1486 1487 1488 1488 1491 1488 1485 1483 1481 1484 1483 1483 1483 1478 1475 1472 1470 1473 1473 1473 1472 1474 1477 1477 1479 1480 1481 1484 1488 1491 1495 1499 1502 1505 1508 1511 1514 1516 1520 1522 1524 1527
1519 1517 1515 1514 1512 1510 1508 1506 1505 1503 1501 1500 1499 1497 1496 1495 1494 1493 1492 1491 1490 1490 1488 1487 1488 1486 1486 1486 1486 1486 1478 1472 1472 1473 1474 1475 1476 1477 1478 1478 1480 1480 1481 1482 1482 1484 1485 1484 1484 1486 1487 1484 1483 1481 1479 1485 1484 1479 1479 1476 1473 1470 1467 1470 1473 1471 1470 1472 1474 1477 1478 1479 1480 1484 1490 1490 1493 1500 1503 1506 1509 1511 1514 1516 1519 1522 1523 1526
1518 1516 1514 1512 1510 1508 1506 1504 1502 1500 1499 1497 1496 1495 1493 1492 1491 1490 1489 1488 1488 1487 1487 1486 1485 1485 1484 1483 1485 1483 1473 1470 1472 1472 1472 1473 1474 1475 1476 1477 1478 1479 1479 1480 1481 1482 1482 1481 1482 1484 1486 1482 1481 1479 1477 1482 1480 1475 1475 1474 1471 1468 1465 1467 1470 1469 1470 1471 1471 1475 1479 1480 1479 1485 1497 1495 1493 1499 1503 1506 1509 1510 1513 1515 1518 1521 1523 1525
1517 1515 1513 1510 1508 1506 1504 1502 1500 1498 1496 1494 1493 1492 1491 1490 1489 1488 1486 1486 1485 1485 1485 1483 1483 1483 1482 1481 1482 1477 1469 1470 1471 1470 1471 1471 1472 1473 1474 1475 1475 1477 1478 1479 1479 1480 1480 1481 1482 1485 1486 1482 1479 1477 1475 1475 1475 1473 1474 1473 1468 1465 1464 1464 1467 1468 1470 1470 1470 1472 1477 1481 1480 1484 1494 1496 1494 1498 1501 1506 1509 1510 1513 1515 1518 1521 1523 1525
1515 1513 1511 1509 1507 1504 1502 1500 1498 1496 1494 1492 1490 1489 1488 1487 1486 1485 1483 1482 1482 1482 1482 1481 1481 1480 1480 1479 1474 1469 1467 1468 1469 1470 1471 1469 1471 1472 1472 1473 1474 1475 1476 1477 1478 1478 1479 1480 1482 1485 1483 1480 1480 1479 1476 1472 1473 1472 1472 1476 1470 1464 1465 1461 1461 1465 1467 1469 1468 1470 1483 1488 1485 1485 1488 1492 1496 1497 1499 1504 1508 1510 1513 1515 1518 1521 1523 1525
1514 1512 1510 1508 1505 1503 1501 1498 1496 1494 1491 1489 1487 1486 1485 1483 1483 1482 1480 1479 1479 1480 1479 1479 1479 1477 1479 1471 1460 1462 1467 1467 1467 1468 1469 1469 1469 1470 1471 1472 1472 1474 1475 1475 1476 1477 1478 1479 1481 1482 1480 1480 1480 1478 1475 1470 1472 1472 1471 1475 1475 1474 1471 1459 1459 1464 1464 1467 1463 1470 1494 1498 1487 1484 1485 1489 1494 1497 1500 1503 1506 1509 1511 1514 1517 1520 1522 1524
1513 1510 1508 1506 1504 1502 1499 1497 1494 1492 1489 1486 1484 1483 1482 1481 1480 1478 1477 1476 1476 1477 1477 1477 1476 1476 1476 1463 1453 1460 1464 1463 1463 1462 1464 1467 1467 1468 1469 1470 1471 1472 1473 1474 1475 1476 1477 1478 1480 1480 1479 1480 1478 1476 1474 1471 1473 1474 1474 1475 1479 1485 1476 1457 1457 1465 1466 1468 1460 1468 1494 1498 1487 1485 1485 1488 1490 1494 1499 1501 1504 1507 1509 1513 1516 1518 1521 1522
1511 1509 1507 1504 1502 1500 1497 1495 1492 1490 1487 1484 1482 1480 1479 1478 1477 1474 1474 1473 1474 1474 1474 1475 1474 1474 1472 1458 1452 1458 1459 1458 1457 1457 1461 1463 1464 1466 1466 1468 1470 1471 1472 1473 1473 1475 1476 1477 1479 1479 1478 1477 1477 1478 1479 1477 1475 1475 1483 1485 1482 1485 1478 1459 1453 1457 1464 1467 1460 1469 1492 1494 1487 1485 1484 1487 1490 1492 1496 1500 1502 1504 1507 1511 1514 1516 1519 1521
1509 1507 1505 1503 1500 1498 1496 1493 1491 1488 1485 1482 1480 1478 1477 1475 1473 1472 1471 1470 1471 1471 1472 1473 1471 1473 1471 1458 1452 1454 1454 1453 1453 1455 1459 1459 1461 1463 1465 1467 1468 1469 1471 1471 1472 1473 1475 1476 1476 1476 1476 1476 1477 1480 1483 1486 1483 1478 1485 1490 1485 1483 1481 1469 1458 1452 1456 1464 1464 1469 1485 1492 1487 1483 1483 1486 1489 1491 1494 1497 1500 1502 1505 1508 1512 1514 1517 1520
1507 1505 1502 1501 1499 1496 1494 1492 1489 1486 1483 1481 1478 1476 1475 1473 1471 1470 1469 1469 1469 1468 1470 1470 1470 1471 1465 1454 1451 1450 1449 1451 1451 1453 1455 1456 1458 1460 1463 1465 1466 1468 1469 1470 1472 1471 1473 1473 1474 1475 1474 1474 1475 1479 1490 1496 1492 1485 1484 1486 1484 1481 1481 1477 1467 1457 1454 1461 1468 1469 1476 1484 1482 1480 1483 1484 1486 1489 1492 1495 1497 1500 1503 1506 1509 1512 1515 1517
1506 1503 1501 1499 1497 1494 1492 1490 1488 1484 1481 1479 1477 1475 1473 1472 1469 1468 1467 1467 1468 1468 1469 1468 1470 1472 1459 1448 1449 1447 1447 1451 1451 1451 1453 1454 1456 1458 1461 1463 1464 1467 1467 1469 1469 1469 1471 1470 1471 1475 1474 1474 1474 1479 1491 1493 1488 1487 1486 1486 1484 1480 1480 1478 1471 1462 1457 1461 1468 1471 1476 1479 1478 1477 1480 1482 1484 1486 1488 1490 1494 1497 1500 1503 1506 1509 1512 1514
1505 1502 1500 1498 1495 1493 1490 1489 1486 1483 1480 1478 1477 1474 1472 1470 1468 1468 1467 1467 1468 1467 1467 1464 1465 1465 1452 1444 1445 1445 1446 1449 1448 1448 1450 1451 1453 1456 1459 1461 1463 1465 1465 1468 1468 1466 1468 1470 1472 1476 1476 1476 1474 1476 1481 1480 1478 1480 1481 1482 1483 1482 1479 1472 1466 1459 1457 1464 1469 1470 1475 1477 1477 1477 1477 1479 1481 1483 1486 1488 1491 1494 1497 1500 1503 1506 1508 1511
1504 1501 1499 1497 1495 1492 1489 1487 1485 1482 1479 1478 1476 1473 1471 1471 1469 1468 1466 1465 1465 1463 1462 1460 1458 1454 1447 1443 1442 1443 1445 1445 1446 1446 1446 1449 1450 1453 1456 1459 1461 1462 1462 1465 1467 1464 1466 1473 1474 1472 1473 1472 1471 1471 1472 1472 1473 1475 1477 1479 1478 1480 1477 1467 1463 1457 1452 1465 1471 1466 1470 1473 1474 1473 1472 1475 1479 1481 1485 1487 1489 1492 1494 1497 1499 1502 1504 1506
1503 1500 1497 1495 1494 1491 1488 1486 1484 1482 1479 1478 1477 1475 1475 1476 1477 1473 1466 1458 1456 1457 1455 1452 1453 1447 1443 1443 1440 1442 1446 1443 1442 1443 1444 1447 1448 1450 1453 1456 1459 1461 1460 1460 1464 1463 1465 1471 1469 1466 1467 1467 1467 1468 1469 1471 1472 1473 1476 1478 1477 1478 1474 1463 1461 1458 1449 1461 1470 1464 1468 1472 1470 1469 1469 1471 1477 1479 1480 1483 1485 1487 1490 1493 1494 1497 1500 1502
1502 1499 1496 1494 1491 1490 1487 1485 1483 1481 1479 1479 1479 1478 1478 1479 1480 1478 1471 1457 1445 1449 1450 1445 1447 1442 1437 1439 1437 1442 1450 1446 1441 1439 1441 1445 1445 1447 1449 1451 1456 1458 1458 1459 1463 1466 1467 1467 1463 1461 1462 1463 1465 1465 1467 1470 1471 1474 1474 1478 1479 1474 1470 1464 1459 1456 1450 1458 1468 1465 1469 1471 1465 1464 1465 1467 1470 1473 1474 1476 1479 1482 1486 1489 1491 1493 1495 1499
1501 1498 1495 1492 1489 1488 1486 1484 1481 1479 1479 1479 1478 1478 1478 1478 1477 1475 1473 1462 1442 1438 1441 1437 1437 1433 1429 1432 1432 1439 1447 1444 1441 1437 1437 1442 1441 1443 1445 1448 1453 1456 1457 1458 1462 1468 1469 1464 1458 1458 1459 1462 1466 1465 1466 1470 1470 1472 1473 1478 1478 1468 1471 1473 1462 1456 1453 1454 1460 1463 1467 1469 1466 1464 1463 1462 1463 1465 1469 1471 1473 1476 1479 1482 1485 1487 1491 1494
1500 1497 1495 1491 1489 1486 1484 1483 1480 1479 1479 1478 1478 1477 1477 1477 1476 1472 1469 1464 1446 1430 1428 1426 1427 1424 1419 1423 1428 1434 1439 1438 1438 1434 1433 1438 1438 1440 1442 1443 1450 1454 1454 1454 1458 1463 1463 1457 1452 1455 1458 1460 1465 1465 1466 1471 1472 1470 1468 1472 1472 1465 1469 1471 1462 1458 1456 1453 1453 1460 1474 1476 1471 1471 1468 1463 1462 1464 1466 1469 1472 1474 1474 1477 1480 1483 1486 1488
1499 1497 1494 1491 1489 1485 1483 1482 1479 1479 1478 1477 1477 1476 1476 1475 1474 1473 1468 1466 1452 1430 1421 1419 1418 1414 1411 1419 1424 1426 1431 1431 1429 1429 1429 1433 1435 1437 1439 1440 1446 1452 1452 1452 1455 1458 1456 1451 1449 1454 1457 1458 1463 1464 1462 1466 1473 1472 1464 1461 1461 1461 1464 1464 1461 1463 1469 1470 1458 1460 1486 1489 1473 1472 1470 1464 1465 1465 1465 1467 1469 1472 1473 1476 1478 1480 1482 1484
1498 1496 1493 1491 1488 1483 1482 1481 1479 1479 1476 1476 1476 1474 1475 1474 1473 1473 1469 1471 1458 1429 1419 1417 1413 1409 1406 1414 1418 1423 1433 1425 1419 1425 1427 1430 1432 1433 1437 1439 1440 1445 1447 1448 1452 1452 1448 1446 1447 1452 1455 1456 1460 1461 1457 1459 1471 1472 1459 1452 1453 1456 1462 1462 1461 1469 1478 1477 1459 1454 1479 1489 1479 1474 1467 1462 1464 1464 1463 1464 1465 1467 1470 1472 1474 1476 1478 1480
1498 1495 1493 1491 1488 1485 1481 1479 1480 1479 1476 1477 1474 1473 1474 1472 1473 1471 1469 1476 1455 1419 1413 1414 1409 1407 1403 1407 1411 1421 1429 1418 1414 1423 1421 1425 1429 1429 1436 1438 1437 1440 1438 1445 1454 1446 1440 1445 1448 1449 1452 1455 1457 1458 1453 1453 1465 1465 1450 1449 1453 1454 1460 1460 1460 1469 1472 1468 1461 1454 1462 1478 1482 1473 1462 1459 1463 1465 1463 1463 1462 1463 1465 1467 1468 1471 1473 1475
1497 1494 1493 1490 1489 1487 1482 1479 1480 1478 1477 1476 1472 1474 1472 1470 1473 1469 1474 1479 1443 1406 1408 1409 1405 1405 1403 1406 1408 1411 1413 1408 1413 1416 1412 1421 1426 1425 1431 1432 1434 1437 1433 1442 1452 1440 1434 1442 1445 1445 1451 1453 1452 1451 1446 1449 1457 1453 1445 1448 1450 1450 1455 1455 1458 1465 1464 1467 1473 1462 1459 1476 1480 1467 1459 1459 1462 1465 1463 1460 1458 1457 1458 1460 1463 1466 1467 1470
1496 1493 1492 1488 1487 1487 1483 1480 1479 1477 1477 1475 1473 1473 1470 1472 1471 1467 1480 1476 1430 1402 1405 1403 1404 1405 1403 1408 1410 1406 1406 1406 1408 1407 1409 1419 1422 1422 1427 1426 1429 1434 1432 1435 1443 1438 1432 1434 1435 1439 1446 1447 1445 1443 1440 1445 1450 1444 1442 1446 1447 1448 1451 1452 1458 1461 1463 1473 1477 1464 1460 1476 1478 1466 1463 1466 1465 1463 1458 1453 1451 1449 1451 1454 1456 1460 1462 1465
1494 1492 1491 1487 1484 1483 1480 1479 1479 1477 1476 1474 1473 1471 1470 1472 1470 1475 1486 1464 1422 1407 1404 1401 1404 1404 1404 1410 1412 1408 1406 1406 1403 1404 1410 1415 1418 1421 1423 1424 1426 1431 1433 1432 1435 1433 1428 1427 1428 1431 1435 1435 1437 1438 1436 1439 1441 1439 1443 1448 1450 1451 1450 1453 1455 1457 1469 1477 1470 1459 1454 1465 1475 1467 1460 1459 1454 1449 1449 1449 1447 1446 1448 1450 1451 1455 1457 1461
1493 1491 1489 1487 1484 1481 1478 1477 1477 1477 1476 1474 1472 1471 1471 1470 1471 1480 1474 1440 1418 1411 1402 1403 1405 1402 1404 1408 1410 1410 1409 1407 1403 1405 1412 1414 1418 1421 1422 1426 1428 1432 1438 1436 1434 1432 1428 1430 1428 1424 1425 1426 1431 1435 1433 1432 1434 1438 1444 1450 1458 1459 1456 1460 1458 1459 1476 1478 1461 1452 1448 1456 1469 1462 1450 1445 1437 1434 1438 1441 1442 1442 1443 1445 1447 1450 1452 1455
1491 1489 1487 1485 1483 1480 1477 1475 1476 1476 1475 1474 1473 1471 1471 1473 1474 1472 1452 1428 1421 1412 1403 1409 1408 1405 1407 1404 1404 1406 1407 1408 1403 1404 1410 1413 1417 1418 1418 1423 1425 1435 1443 1438 1436 1435 1431 1429 1425 1422 1421 1420 1429 1436 1435 1432 1432 1438 1445 1452 1464 1471 1470 1474 1470 1467 1473 1467 1450 1444 1447 1454 1456 1445 1437 1437 1432 1428 1428 1429 1431 1433 1436 1439 1441 1444 1447 1450
1489 1486 1484 1482 1480 1478 1475 1473 1473 1474 1473 1473 1473 1470 1473 1478 1469 1453 1441 1432 1420 1406 1405 1411 1407 1407 1410 1408 1406 1403 1404 1406 1402 1403 1406 1408 1415 1415 1414 1415 1415 1427 1436 1434 1438 1441 1438 1431 1423 1425 1422 1415 1422 1433 1438 1437 1434 1438 1443 1450 1463 1472 1480 1484 1477 1470 1468 1457 1443 1439 1446 1454 1449 1434 1427 1427 1423 1420 1419 1420 1423 1424 1428 1432 1434 1438 1441 1444
1487 1484 1482 1478 1476 1475 1474 1473 1471 1471 1472 1471 1472 1472 1476 1476 1459 1440 1439 1435 1418 1405 1410 1415 1410 1408 1408 1408 1406 1401 1405 1407 1400 1403 1406 1407 1415 1416 1414 1413 1411 1417 1425 1431 1436 1438 1445 1441 1424 1421 1419 1412 1414 1420 1425 1428 1431 1433 1431 1440 1451 1454 1464 1473 1471 1469 1466 1455 1444 1442 1449 1453 1446 1431 1417 1413 1412 1411 1413 1415 1416 1420 1423 1426 1429 1433 1436 1439
1484 1482 1479 1475 1474 1474 1472 1471 1469 1469 1471 1470 1472 1474 1472 1464 1451 1441 1438 1432 1424 1416 1415 1417 1415 1411 1406 1404 1401 1396 1400 1403 1399 1402 1405 1406 1411 1411 1410 1410 1409 1413 1421 1431 1432 1429 1439 1435 1415 1410 1408 1406 1411 1411 1411 1420 1430 1428 1424 1434 1441 1435 1441 1453 1455 1453 1453 1453 1448 1443 1443 1437 1427 1416 1405 1404 1408 1408 1410 1411 1413 1418 1420 1423 1427 1429 1431 1434
1483 1479 1476 1472 1472 1472 1469 1469 1468 1468 1469 1469 1473 1473 1462 1452 1446 1442 1435 1430 1433 1431 1426 1422 1418 1417 1413 1404 1399 1396 1394 1396 1398 1401 1402 1402 1403 1404 1404 1403 1403 1407 1412 1422 1426 1425 1433 1428 1409 1407 1407 1402 1406 1406 1404 1414 1425 1425 1425 1430 1425 1419 1429 1446 1451 1443 1444 1457 1451 1438 1436 1429 1422 1417 1406 1404 1409 1408 1409 1411 1412 1414 1416 1420 1423 1424 1426 1429
1482 1478 1472 1469 1469 1469 1467 1467 1467 1466 1467 1469 1471 1465 1455 1449 1445 1441 1437 1434 1437 1438 1438 1437 1429 1426 1423 1413 1406 1403 1399 1396 1396 1399 1401 1400 1398 1396 1398 1398 1396 1399 1403 1410 1416 1416 1423 1425 1409 1407 1411 1402 1397 1401 1401 1400 1408 1419 1425 1421 1415 1418 1425 1436 1449 1449 1451 1461 1451 1435 1435 1434 1432 1428 1414 1409 1413 1411 1409 1410 1409 1410 1413 1416 1418 1418 1420 1422
1482 1478 1471 1466 1468 1467 1465 1465 1463 1464 1465 1467 1467 1460 1453 1450 1445 1443 1441 1438 1437 1438 1443 1446 1436 1426 1425 1422 1416 1410 1409 1408 1402 1400 1399 1398 1393 1387 1389 1394 1392 1392 1394 1401 1411 1409 1412 1423 1413 1402 1406 1401 1393 1402 1408 1399 1395 1405 1411 1407 1413 1429 1433 1433 1444 1451 1455 1462 1452 1437 1433 1431 1430 1425 1415 1413 1413 1409 1407 1408 1407 1409 1410 1412 1412 1413 1415 1418
1483 1480 1470 1465 1466 1465 1461 1461 1459 1460 1464 1464 1464 1459 1453 1450 1447 1445 1445 1442 1440 1439 1440 1441 1434 1426 1423 1424 1422 1415 1415 1417 1412 1408 1404 1396 1390 1380 1379 1386 1388 1389 1390 1395 1405 1405 1406 1421 1419 1400 1397 1399 1396 1403 1412 1408 1399 1398 1402 1403 1407 1418 1426 1428 1432 1436 1445 1456 1452 1443 1437 1429 1419 1411 1408 1409 1406 1402 1403 1404 1404 1404 1404 1405 1406 1408 1412 1415
1485 1482 1471 1464 1466 1462 1457 1457 1456 1458 1460 1458 1458 1456 1451 1449 1447 1445 1445 1444 1442 1439 1437 1435 1433 1431 1426 1425 1424 1420 1417 1417 1415 1414 1408 1396 1389 1380 1373 1376 1382 1385 1386 1389 1396 1400 1403 1414 1419 1406 1395 1399 1401 1399 1401 1405 1404 1404 1407 1410 1410 1410 1415 1420 1421 1421 1428 1442 1447 1447 1442 1427 1408 1398 1398 1399 1397 1395 1396 1398 1399 1397 1396 1398 1401 1404 1408 1411
1486 1483 1470 1463 1465 1461 1455 1454 1454 1456 1457 1455 1454 1453 1450 1448 1446 1444 1444 1443 1441 1439 1437 1435 1434 1432 1430 1428 1425 1421 1418 1416 1413 1412 1407 1398 1392 1385 1374 1369 1374 1379 1385 1389 1391 1396 1402 1407 1413 1410 1402 1401 1398 1388 1386 1391 1394 1398 1403 1405 1408 1411 1415 1424 1429 1419 1416 1426 1432 1437 1440 1423 1398 1389 1390 1390 1390 1389 1388 1390 1392 1391 1391 1394 1397 1400 1403 1406
1487 1482 1468 1464 1466 1462 1458 1458 1456 1456 1457 1454 1452 1450 1447 1446 1444 1442 1442 1441 1439 1437 1434 1432 1430 1429 1428 1426 1423 1421 1419 1415 1412 1408 1403 1397 1392 1387 1378 1371 1370 1371 1377 1386 1385 1383 1389 1398 1406 1407 1400 1397 1390 1380 1378 1379 1380 1387 1392 1394 1400 1406 1410 1422 1431 1423 1416 1419 1419 1424 1432 1416 1390 1382 1384 1383 1383 1382 1381 1384 1386 1387 1389 1390 1392 1395 1398 1402
1487 1479 1465 1464 1468 1464 1464 1463 1458 1457 1457 1453 1450 1447 1445 1443 1441 1440 1439 1439 1437 1436 1433 1429 1427 1426 1424 1421 1417 1418 1418 1413 1408 1403 1399 1394 1388 1383 1379 1377 1377 1373 1371 1377 1379 1378 1384 1392 1401 1405 1398 1389 1384 1378 1376 1374 1377 1384 1386 1386 1392 1399 1402 1407 1413 1414 1415 1417 1417 1425 1431 1412 1386 1377 1380 1380 1379 1378 1378 1380 1382 1384 1384 1386 1389 1391 1395 1399
1485 1477 1465 1465 1467 1466 1468 1467 1462 1460 1458 1453 1451 1449 1445 1442 1441 1440 1439 1438 1436 1434 1432 1429 1427 1425 1422 1420 1417 1415 1416 1412 1403 1397 1395 1392 1385 1379 1378 1381 1384 1382 1376 1373 1371 1374 1382 1388 1394 1406 1410 1404 1397 1392 1387 1381 1378 1380 1381 1381 1384 1389 1396 1400 1403 1408 1414 1413 1414 1424 1427 1409 1387 1378 1379 1380 1379 1379 1379 1378 1380 1382 1381 1383 1386 1389 1392 1395
1484 1477 1468 1466 1467 1467 1468 1468 1467 1465 1461 1457 1455 1452 1448 1444 1442 1441 1440 1438 1435 1434 1433 1430 1428 1426 1422 1422 1421 1418 1417 1416 1411 1404 1399 1395 1389 1383 1381 1384 1386 1385 1380 1373 1365 1364 1372 1378 1383 1395 1408 1410 1405 1397 1388 1383 1380 1377 1376 1378 1379 1382 1390 1398 1403 1411 1416 1412 1411 1417 1416 1404 1389 1381 1380 1379 1378 1379 1379 1377 1379 1381 1381 1382 1384 1387 1390 1391
1487 1481 1472 1467 1466 1466 1467 1467 1468 1468 1466 1462 1459 1455 1452 1449 1444 1441 1439 1438 1435 1433 1432 1430 1427 1425 1424 1424 1424 1422 1419 1418 1418 1415 1410 1406 1401 1392 1387 1388 1388 1385 1380 1375 1369 1364 1363 1365 1368 1375 1383 1387 1387 1382 1374 1373 1379 1381 1378 1377 1378 1378 1382 1391 1401 1407 1409 1410 1410 1408 1406 1403 1394 1386 1384 1379 1376 1378 1378 1376 1377 1379 1379 1381 1383 1385 1387 1388
1488 1485 1478 1473 1470 1466 1466 1466 1467 1469 1468 1466 1464 1458 1455 1453 1448 1441 1437 1436 1434 1432 1431 1429 1426 1426 1426 1426 1426 1425 1422 1419 1417 1417 1416 1412 1406 1397 1391 1388 1388 1385 1379 1375 1374 1371 1367 1363 1359 1362 1367 1368 1369 1371 1368 1368 1373 1376 1377 1377 1377 1376 1379 1387 1396 1397 1398 1407 1411 1401 1399 1403 1396 1387 1385 1379 1374 1376 1375 1373 1374 1376 1377 1379 1380 1382 1385 1386
1487 1485 1481 1480 1478 1473 1470 1467 1467 1468 1467 1466 1464 1460 1457 1454 1451 1447 1442 1437 1435 1434 1432 1429 1428 1429 1429 1428 1429 1428 1426 1423 1419 1418 1419 1415 1408 1401 1392 1385 1386 1386 1382 1378 1376 1376 1375 1366 1355 1356 1361 1361 1362 1363 1363 1366 1368 1368 1371 1374 1374 1375 1378 1382 1387 1388 1389 1398 1402 1395 1394 1397 1392 1385 1382 1376 1371 1372 1371 1369 1370 1371 1373 1375 1376 1378 1381 1384
1485 1484 1481 1480 1480 1477 1475 1472 1469 1467 1466 1465 1464 1460 1457 1456 1453 1451 1448 1444 1440 1438 1437 1434 1432 1432 1432 1430 1431 1431 1430 1428 1425 1422 1421 1418 1415 1412 1405 1394 1388 1385 1387 1386 1379 1377 1379 1368 1354 1352 1357 1358 1359 1358 1357 1362 1366 1366 1366 1368 1369 1371 1373 1375 1380 1382 1382 1386 1388 1387 1389 1389 1383 1378 1374 1370 1368 1367 1366 1366 1367 1369 1370 1370 1373 1375 1377 1380
1484 1483 1481 1480 1479 1476 1474 1472 1470 1468 1466 1465 1464 1460 1456 1456 1454 1450 1449 1449 1447 1440 1438 1439 1435 1433 1433 1431 1431 1432 1430 1428 1427 1424 1423 1421 1418 1417 1415 1407 1396 1389 1391 1392 1383 1379 1381 1372 1355 1351 1356 1357 1354 1354 1355 1358 1362 1366 1365 1364 1365 1368 1370 1372 1375 1378 1382 1385 1385 1384 1387 1385 1377 1371 1369 1366 1365 1365 1365 1365 1365 1366 1368 1368 1370 1373 1375 1377
1483 1482 1481 1481 1478 1475 1473 1471 1469 1468 1466 1463 1463 1460 1457 1455 1453 1451 1448 1448 1447 1443 1439 1438 1435 1431 1431 1430 1429 1428 1425 1424 1424 1421 1421 1421 1419 1417 1415 1411 1405 1399 1395 1393 1388 1382 1382 1376 1362 1356 1360 1357 1350 1353 1355 1353 1359 1366 1365 1363 1364 1367 1368 1369 1370 1372 1376 1381 1384 1386 1388 1385 1373 1367 1366 1365 1363 1364 1365 1364 1364 1364 1366 1367 1368 1370 1372 1374
1481 1481 1480 1480 1477 1473 1472 1470 1468 1468 1466 1462 1461 1460 1459 1455 1451 1451 1450 1445 1443 1442 1440 1437 1434 1431 1430 1428 1426 1423 1420 1420 1419 1418 1417 1416 1414 1412 1410 1407 1407 1404 1398 1396 1392 1384 1381 1380 1374 1370 1368 1356 1347 1350 1352 1356 1369 1370 1359 1356 1360 1361 1363 1365 1365 1365 1365 1368 1376 1380 1378 1373 1366 1363 1364 1364 1365 1365 1364 1363 1364 1364 1364 1366 1367 1368 1370 1371